Regional Weather Roundup
Issued by NWS Sterling, VA

Home | Current Version | Previous Version | Text Only | Print | Product List | Glossary On
Versions: 1 2 3 4 5 6 7 8 9 10 11 12 13 14 15 16 17 18 19 20 21 22 23 24 25 26 27 28
000
ASUS41 KLWX 190011
RWRLWX

REGIONAL WEATHER ROUNDUP
NATIONAL WEATHER SERVICE BALTIMORE MD/WASHINGTON DC
800 PM EDT WED OCT 18 2017

Note: "FAIR" indicates few or no clouds below 12,000 feet
with no significant weather and/or obstructions to visibility.
 TC=TEMPERATURE CELSIUS

 * =Non NWS site. Station does not report precipitation (e.g. rain,
    snow, etc.), thunder, or fog.

DCZ001-MDZ009-015-VAZ040>042-051-053>054-190100-
WASHINGTON METRO

CITY           SKY/WX    TMP DP  RH WIND       PRES   REMARKS
WASHINGTON NAT PTCLDY    61  48  62 S7        30.31R
DULLES         CLEAR     59  44  57 S6        30.30R
ANDREWS AFB    CLEAR     56  46  68 S5        30.30R
FT BELVOIR     CLEAR     51  48  88 CALM      30.31R
QUANTICO       CLEAR     56  52  86 NW5       30.32R
COLLEGE PARK*  CLEAR     54  47  79 CALM      30.30S
LEESBURG*      CLEAR     55  46  71 S3        30.31R
MANASSAS*      CLEAR     51  46  83 CALM      30.31R
GAITHERSBURG*  CLEAR     59  42  53 S5        30.31R

$$

MDZ006>007-011-014-190100-
BALTIMORE METRO

CITY           SKY/WX    TMP DP  RH WIND       PRES   REMARKS
BWI AIRPORT    PTCLDY    53  47  79 S3        30.30R
MD SCIENCE CTR   N/A     65  49  56 MISG      30.30R
MARTIN STATE   CLEAR     63  54  72 S5        30.31S
ANNAPOLIS      CLEAR     62  47  57 SW3       30.30S
FORT MEADE*    CLEAR     50  46  87 CALM      30.32S

$$

MDZ012-015-019>023-190100-
MARYLAND EASTERN SHORE

CITY           SKY/WX    TMP DP  RH WIND       PRES   REMARKS
OCEAN CITY     CLEAR     51  44  77 CALM      30.34R
SALISBURY      CLEAR     52  49  89 E3        30.32S
CAMBRIDGE*     CLEAR     54  46  76 CALM      30.32S
EASTON*        CLEAR     57  45  62 S7        30.35S

$$

MDZ017>025-190100-
SOUTHERN MARYLAND

CITY           SKY/WX    TMP DP  RH WIND       PRES   REMARKS
PATUXENT RIVER PTCLDY    57  45  64 S6        30.31S
ST INIGOES     CLEAR     52  47  83 SE3       30.31S
LEONARDTOWN*   NOT AVBL

$$

MDZ003>005-190100-
NORTH CENTRAL MARYLAND

CITY           SKY/WX    TMP DP  RH WIND       PRES   REMARKS
FREDERICK*     CLEAR     61  45  55 CALM      30.32R
HAGERSTOWN APT CLOUDY    62  43  49 SE6       30.29R
WESTMINSTER*   CLEAR     61  46  59 CALM      30.30R

$$

MDZ501>502-190100-
WESTERN MARYLAND

CITY           SKY/WX    TMP DP  RH WIND       PRES   REMARKS
OAKLAND*       CLEAR     52  34  50 SE5       30.27S
CUMBERLAND*    CLEAR     61  45  55 NW5       30.31R

$$

VAZ025>031-190100-
SHENANDOAH VALLEY

CITY           SKY/WX    TMP DP  RH WIND       PRES   REMARKS
WINCHESTER*    CLEAR     52  41  66 S3        30.28S
FRONT ROYAL*   CLEAR     59  41  51 CALM      30.28S
LURAY*         CLEAR     59  41  51 S6        30.30R
NEW MARKET*    CLEAR     52  41  65 W3        30.29S
STAUNTON*      CLEAR     53  40  61 CALM      30.33S
WAYNESBORO*    CLEAR     53  42  66 SW3       30.32S

$$

WVZ021-048>050-054>055-190100-
EASTERN WEST VIRGINIA PANHANDLE

CITY           SKY/WX    TMP DP  RH WIND       PRES   REMARKS
MARTINSBURG    CLEAR     56  41  57 SE3       30.28R
PETERSBURG*    CLEAR     51  43  73 CALM      30.28R

$$

VAZ036>039-050-190100-
CENTRAL FOOTHILLS

CITY           SKY/WX    TMP DP  RH WIND       PRES   REMARKS
CHARLOTTESVILL CLEAR     60  41  49 S5        30.31S
CULPEPER*      CLEAR     52  42  70 CALM      30.32R
ORANGE*        CLEAR     50  43  76 CALM      30.31S
GORDONSVILLE*  CLEAR     51  46  83 CALM      30.31S
WARRENTON*     CLEAR     58  39  49 S3        30.30S

$$

VAZ055>057-190100-
NORTH AND CENTRAL PIEDMONT

CITY           SKY/WX    TMP DP  RH WIND       PRES   REMARKS
FREDERICKSBRG* CLEAR     54  48  80 CALM      30.31R
STAFFORD*      CLEAR     49  49 100 CALM      30.35S

$$

NCZ024-NYZ072-PAZ021-071-VAZ022-071-190100-
OTHER REGIONAL OBSERVATIONS

CITY           SKY/WX    TMP DP  RH WIND       PRES   REMARKS
NEW YORK CITY  CLEAR     64  50  60 SW3       30.30R
PHILADELPHIA   CLEAR     64  46  52 SW8       30.30R
PITTSBURGH     PTCLDY    60  44  55 CALM      30.22F
ROANOKE        CLEAR     56  41  57 CALM      30.34S
RICHMOND       PTCLDY    54  43  66 CALM      30.33R
RALEIGH        PTCLDY    54  46  74 CALM      30.33R

$$

ANZ530>537-190100-
MARINE OBSERVATIONS

STATION/POSITION TIME  TEMP    WIND        PRES
                       AIR SEA DIR/SP/G
                 (UTC) (F)     (DEG/KT/KT) (MB)
THOMAS PT LIGHT  0000   65 68  200/ 12/ 13   N/A
BALT KEY BRIDGE  2336   64     170/  8/  9 1025.7S
COVE POINT       2336   62     210/  8/ 10 1027.2R
LEWISETTA        2336   60 65  210/  6/  7 1026.6R
SOLOMONS ISLAND  2336   62 69  180/  6/  8 1026.1S
PINEY POINT      2336          200/  7/  8   N/A

$$





USA.gov is the U.S. government's official web portal to all federal, state and local government web resources and services.